COSMOS 1275 DEB, 42194

Orbit data source: Space-Track

COSMOS 1275 DEB, 42194 is space debris in LEO originally from a launch on Thu, 04 Jun 1981 UTC launched from the Plesetsk Missile And Space Complex (PKMTR). Debris objects in space refer to the collection of defunct objects orbiting the Earth. Examples of debris include non-operational satellites, rocket bodies, and fragments generated from explosions, collisions, or faulty payload assembly.

Loading next visibility...
Identifier
42194, 1981-053TJ
Orbit
LEO
Country
Flag of CISCIS
Related business
Manufacturer
Unknown
Mission
Spacecraft
Bus & Motor
Unknown
Mass
Unknown
Launch date (UTC)
1981-06-04 (45 years ago)
Launch vehicle
Unknown
Launch site
Plesetsk Missile And Space Complex (PKMTR)
Object type
Payload
Rocket body
Debris
Shape & HBR
Unknown shape, 0.1 m
Radar Cross Section
Small (<0.1 m²)

Expand to show TLE details & history
Last TLE update: 1 year ago

TLE from 1 year ago
0 COSMOS 1275 DEB
1 42194U 81053TJ  25046.40404767  .00002695  00000-0  25757-2 0  9996
2 42194  82.8257  90.5624 0201355  91.4820 270.9409 13.71529663560263
Epoch: 2025-02-15T09:41Z
TLE epoch observation values (Epoch: 2025-02-15T09:41:49.718Z)
Latitude
0.00003°
Longitude
159.4533°
Altitude
997.529 km
Speed
7.353 km/s
True Right ascension
06h 02m 14s
True Declination
0° 00' 00"
Sunlit
Object was in full shadow at epoch
Visualization orbit readout
Latitude
Unknown
Longitude
Unknown
Altitude
Unknown
Speed
Unknown
Apparent Right ascension
Unknown
Apparent Declination
Unknown
Sunlit
N/A
Visualization observer readout
Local Sidereal Time
13:07:29
Azimuth
Unknown
Elevation
Unknown
Doppler factor
Unknown
Orbital elements
Apogee altitude
1,139.627 km
Perigee altitude
842.855 km
Semi-major axis
7,369.378 km
Eccentricity
0.02014
Inclination
82.8257°
RAAN
90.5624°
Arg. of periapsis
91.482°
True anomaly
268.63352°
Mean anomaly
270.9409°
Eccentric anomaly
269.78723°
Mean motion
3.43081 °/min
Orbital period
104.93 mins
BSTAR
0.0025757
Loading maneuver chart data...
Computing Atmospheric mass density...

Documentation

Showing up to 5 results
|